Regional Weather Roundup
Issued by NWS

Home | Current Version | Previous Version | Text Only | Print | Product List | Glossary On
Versions: 1 2 3 4 5 6 7 8 9 10 11 12 13 14 15 16 17 18 19 20 21 22 23 24 25 26 27 28 29 30 31 32 33 34 35 36 37 38 39 40 41 42 43 44 45 46 47 48 49 50
000
ASUS43 KLSX 282207
RWRMO

WEATHER SUMMARY FOR MISSOURI
NATIONAL WEATHER SERVICE SPRINGFIELD MO
500 PM CDT SAT MAR 28 2015

NOTE: "FAIR" INDICATES FEW OR NO CLOUDS BELOW 12,000 FEET WITH NO
       SIGNIFICANT WEATHER AND/OR OBSTRUCTIONS TO VISIBILITY.
       CURRENT SKY AND/OR WEATHER CONDITIONS ARE NOT AVAILABLE FOR
       CHILLICOTHE AND FARMINGTON.

MOZ001>031-035>038-043-044-053-054-282300-
...NORTHERN AND WESTERN MISSOURI...

CITY           SKY/WX    TMP DP  RH WIND       PRES   REMARKS
KANSAS CTY INT MOSUNNY   52  31  44 E12       30.11F
KANSAS C DTWN  SUNNY     54  30  40 E9        30.11F
LEE`S SUMMIT   SUNNY     52  30  43 SE12      30.13S
ST JOSEPH      MOSUNNY   54  32  43 S14G21    30.12F
CHILLICOTHE      N/A     50  31  48 S7        30.17F
KIRKSVILLE     SUNNY     46  24  42 S12       30.20F

$$
MOZ066>068-077>081-088>096-101>105-282300-
...SOUTHWEST MISSOURI...

CITY           SKY/WX    TMP DP  RH WIND       PRES   REMARKS
SPRINGFIELD    MOSUNNY   47  32  56 SE14      30.14F
JOPLIN         SUNNY     58  38  47 SE10G18   30.07S

$$
MOZ032>034-039>042-045>050-055>058-069>072-282300-
...CENTRAL MISSOURI...

CITY           SKY/WX    TMP DP  RH WIND       PRES   REMARKS
COLUMBIA       MOSUNNY   47  27  45 SE8       30.19F
JEFFERSON CITY MOSUNNY   47  27  45 SE8       30.20F
ROLLA          MOSUNNY   45  27  49 SE5       30.18S
SEDALIA        MOSUNNY   51  30  44 SE14      30.16F
WHITEMAN AFB   SUNNY     51  31  46 SE10      30.14F
WARRENSBURG    SUNNY     52  32  46 SE8       30.15S
OSAGE BEACH    CLOUDY    48  30  49 SE6       30.19S

$$
MOZ051-052-059>065-282300-
...EAST CENTRAL MISSOURI...

CITY           SKY/WX    TMP DP  RH WIND       PRES   REMARKS
ST LOUIS INTL  SUNNY     46  16  30 E7        30.26F
SPIRIT OF STL  MOSUNNY   46  18  32 SE6       30.24F
ST CHARLES     SUNNY     45  22  40 VRB6      30.26F

$$
MOZ072>076-082>087-097>100-106>115-282300-
...SOUTH CENTRAL AND SOUTHEAST MISSOURI...

CITY           SKY/WX    TMP DP  RH WIND       PRES   REMARKS
CAPE GIRARDEAU SUNNY     47  14  26 CALM      30.26F
FARMINGTON     SUNNY     46  21  36 SE9       30.25F
POPLAR BLUFF   PTSUNNY   46  27  47 SE7       30.25F
WEST PLAINS    CLOUDY    37  31  78 SE7       30.23S

$$



USA.gov is the U.S. government's official web portal to all federal, state and local government web resources and services.